[[{"header":{"parameterUnit":"m.s-1","parameterCategory":1,"la1":30.2991,"la2":30.254,"lo1":-89.0895,"lo2":-89.0444,"dy":0.0017,"dx":0.0017,"nx":28,"ny":28,"refTime":"2023-09-22T21:00:00:Z","depth":0,"parameterNumber":2,"parameterNumberName":"U-component_of_WINDS"},"data":[0,0,0,0,0,0,0,0,0,0,0,0,0,0,0,0,0,0,0,0,0,0,0,0,0,0,0,0,0,0,0,0,0,0,0,0,0,0,0,0,0,0,0,0,0,0,0,0,0,0,0,0,0,0,0,0,0,0,-0.7838,-0.7837,0,-0.7752,-0.7751,-0.775,-0.7683,-0.7682,-0.7682,-0.7681,-0.7591,-0.7589,-0.7588,0,0,0,0,0,0,0,0,0,0,0,0,0,-0.7947,-0.7945,-0.7838,-0.7837,-0.7836,-0.7752,-0.7751,-0.7749,-0.7683,-0.7682,-0.7681,-0.7681,-0.7592,-0.759,-0.7587,0,0,0,0,0,0,0,0,0,0,0,0,0,-0.7884,-0.7945,-0.7839,-0.7793,-0.7788,-0.7752,-0.775,-0.7749,-0.7683,-0.7682,-0.7681,-0.768,-0.7592,-0.759,-0.7587,-0.7589,0,0,-0.7579,-0.7578,0,0,0,0,0,0,0,0,-0.7888,-0.788,-0.7801,-0.7796,-0.779,-0.7727,-0.7756,-0.7695,-0.7683,-0.7723,-0.7681,-0.768,-0.7637,-0.7631,-0.7616,-0.7585,-0.7581,-0.7578,-0.7577,-0.7576,-0.7575,0,0,0,0,0,0,0,-0.7892,-0.7884,-0.7804,-0.78,-0.7793,-0.7777,-0.7767,-0.7744,-0.7686,-0.7719,-0.7714,-0.7705,-0.7634,-0.7619,-0.7614,-0.758,-0.7579,-0.7576,-0.7574,-0.7573,-0.7547,-0.7548,0,0,0,0,0,0,-0.7904,-0.7888,-0.7807,-0.7801,-0.7838,-0.7776,-0.7765,-0.7748,-0.7686,-0.7676,-0.7706,-0.7702,-0.7624,-0.7617,-0.761,-0.7609,-0.7576,-0.7573,-0.7572,-0.7546,-0.7547,-0.7548,0,0,0,0,0,0,-0.7906,-0.7897,-0.781,-0.7843,-0.7831,-0.7775,-0.7757,-0.7747,-0.7732,-0.7676,-0.7665,-0.7701,-0.7623,-0.7614,-0.7595,-0.7605,-0.7572,-0.7569,-0.7545,-0.7546,-0.7548,-0.7607,0,0,0,0,0,0,-0.791,-0.7898,-0.7898,-0.7844,-0.7829,-0.7797,-0.7758,-0.7746,-0.7728,-0.7722,-0.7669,-0.7659,-0.7622,-0.76,-0.7593,-0.7601,-0.7567,-0.7544,-0.7545,-0.7547,-0.7604,-0.761,-0.7616,0,0,0,0,0,-0.7914,-0.7918,-0.7899,-0.7889,-0.7828,-0.7797,-0.7789,-0.7746,-0.7729,-0.7728,-0.7693,-0.7661,-0.7605,-0.7598,-0.759,-0.7597,-0.7543,-0.7545,-0.7547,-0.7601,-0.7609,-0.7615,0,0,0,0,0,0,-0.7975,-0.791,-0.7888,-0.7875,-0.7842,-0.7786,-0.7784,-0.7756,-0.7727,-0.7723,-0.7671,-0.7659,-0.7646,-0.762,-0.7613,-0.7597,-0.757,-0.7571,-0.7614,-0.7621,-0.7627,-0.7633,-0.7565,0,0,0,0,0,-0.7987,-0.7967,-0.7912,-0.7905,-0.789,-0.7841,-0.7825,-0.7795,-0.7759,-0.7745,-0.7708,-0.7674,-0.7649,-0.7634,-0.7607,-0.76,-0.7588,-0.7601,-0.7607,-0.7612,-0.7613,-0.7608,-0.7613,-0.7555,-0.7555,-0.7555,0,0,-0.8011,-0.7973,-0.7964,-0.7917,-0.7888,-0.7869,-0.7829,-0.7811,-0.7796,-0.7742,-0.7722,-0.7694,-0.7653,-0.764,-0.7633,-0.7618,-0.7627,-0.7615,-0.7619,-0.7617,-0.7611,-0.7616,-0.7621,-0.7556,-0.7556,-0.7556,0,0,-0.8046,-0.8015,-0.8007,-0.798,-0.7937,-0.7904,-0.7903,-0.7851,-0.7831,-0.781,-0.7769,-0.7752,-0.7709,-0.7682,-0.7663,-0.769,-0.7659,-0.7683,-0.7713,-0.7709,-0.7714,-0.7717,-0.7727,-0.7731,-0.7684,-0.7684,-0.7684,0,-0.8082,-0.8052,-0.8007,-0.7991,-0.7972,-0.7923,-0.7914,-0.789,-0.7841,-0.7829,-0.7813,-0.776,-0.7729,-0.7709,-0.7716,-0.7702,-0.7699,-0.7688,-0.7717,-0.772,-0.7723,-0.7732,-0.7736,-0.7687,-0.7687,-0.7686,-0.7686,0,-0.8098,-0.8078,-0.8076,-0.8031,-0.8012,-0.8,-0.7953,-0.7939,-0.7911,-0.788,-0.7861,-0.7822,-0.7788,-0.7781,-0.7753,-0.7758,-0.775,-0.7726,-0.7698,-0.7732,-0.774,-0.7743,-0.7692,-0.769,-0.7689,-0.7689,0,0,-0.8167,-0.8099,-0.8099,-0.8078,-0.8028,-0.8012,-0.7999,-0.7966,-0.7955,-0.7923,-0.7911,-0.7877,-0.7855,-0.7833,-0.7802,-0.7799,-0.7823,-0.7775,-0.7773,-0.7786,-0.7827,-0.7845,-0.785,-0.7803,-0.7804,-0.7804,-0.783,0,-0.8194,-0.8167,-0.8127,-0.8113,-0.8095,-0.8049,-0.8037,-0.8006,-0.7977,-0.7957,-0.7925,-0.7902,-0.7875,-0.7861,-0.7856,-0.7822,-0.7831,-0.7819,-0.7791,-0.7791,-0.7803,-0.7853,-0.7872,-0.7899,-0.7833,-0.7834,-0.7834,0,-0.8222,-0.8194,-0.8178,-0.8131,-0.8122,-0.8112,-0.8079,-0.8061,-0.8025,-0.8004,-0.7981,-0.7947,-0.7931,-0.7907,-0.7884,-0.7877,-0.7864,-0.7845,-0.7845,-0.784,-0.7814,-0.785,-0.7906,-0.791,-0.7838,-0.7838,-0.7837,0,-0.8275,-0.8233,-0.8218,-0.8202,-0.8147,-0.8141,-0.8118,-0.8081,-0.8064,-0.8035,-0.8024,-0.7994,-0.7978,-0.7955,-0.7915,-0.7901,-0.7897,-0.7869,-0.7879,-0.7881,-0.788,-0.7881,-0.7935,-0.7872,-0.7872,-0.7872,-0.7872,0,-0.8309,-0.8301,-0.8241,-0.8233,-0.8223,-0.8178,-0.817,-0.8142,-0.811,-0.8095,-0.8054,-0.8041,-0.7989,-0.797,-0.7938,-0.7925,-0.7917,-0.79,-0.7892,-0.7904,-0.7906,-0.7894,-0.7891,-0.7873,-0.7873,-0.7872,-0.7872,0,-0.8366,-0.8325,-0.8307,-0.8256,-0.8244,-0.8239,-0.8196,-0.8186,-0.8155,-0.8137,-0.813,-0.8082,-0.8058,-0.8016,-0.798,-0.7959,-0.7951,-0.7937,-0.7964,-0.7958,-0.7971,-0.7971,-0.8019,-0.8023,-0.7959,-0.7959,-0.796,0,-0.839,-0.8384,-0.8333,-0.832,-0.8299,-0.8279,-0.8262,-0.8217,-0.8201,-0.8161,-0.8156,-0.8128,-0.8104,-0.8068,-0.803,-0.8002,-0.7987,-0.8006,-0.7982,-0.7995,-0.7987,-0.7988,-0.7987,-0.8011,-0.8012,-0.8013,-0.8013,0,-0.8438,-0.8419,-0.8396,-0.8367,-0.8348,-0.8322,-0.8295,-0.8287,-0.8236,-0.8221,-0.8196,-0.8177,-0.8141,-0.8114,-0.8081,-0.8057,-0.8027,-0.8021,-0.8022,-0.8034,-0.805,-0.8042,-0.7978,-0.802,-0.8019,-0.8019,-0.8018,-0.8018,-0.848,-0.8472,-0.8435,-0.8412,-0.8387,-0.8362,-0.8351,-0.8319,-0.8298,-0.8265,-0.824,-0.8217,-0.8182,-0.8135,-0.8113,-0.8095,-0.8081,-0.8082,-0.8082,-0.8083,-0.8088,-0.8053,-0.8089,-0.8088,-0.8088,-0.8088,-0.8088,0,-0.8526,-0.85,-0.8479,-0.8442,-0.8424,-0.8398,-0.8366,-0.8353,-0.8333,-0.8303,-0.8281,-0.8253,-0.8228,-0.8188,-0.816,-0.8153,-0.8139,-0.8147,-0.8147,-0.8142,-0.8102,-0.8104,-0.8159,-0.8159,-0.8159,-0.8159,-0.8159,-0.8159,-0.8547,-0.8533,-0.851,-0.8483,-0.8458,-0.8436,-0.842,-0.8398,-0.8374,-0.8344,-0.8323,-0.8298,-0.8265,-0.8234,-0.821,-0.8199,-0.819,-0.8203,-0.8188,-0.8151,-0.8145,-0.8138,-0.814,-0.8202,-0.8202,-0.8229,-0.823,-0.823]},{"header":{"parameterUnit":"m.s-1","parameterCategory":1,"la1":30.2991,"la2":30.254,"lo1":-89.0895,"lo2":-89.0444,"dy":0.0017,"dx":0.0017,"nx":28,"ny":28,"refTime":"2023-09-22T21:00:00:Z","depth":0,"parameterNumber":3,"parameterNumberName":"V-component_of_WINDS"},"data":[0,0,0,0,0,0,0,0,0,0,0,0,0,0,0,0,0,0,0,0,0,0,0,0,0,0,0,0,0,0,0,0,0,0,0,0,0,0,0,0,0,0,0,0,0,0,0,0,0,0,0,0,0,0,0,0,0,0,1.8532,1.8531,0,1.8485,1.8485,1.8484,1.8489,1.8489,1.849,1.8491,1.8437,1.8435,1.8433,0,0,0,0,0,0,0,0,0,0,0,0,0,1.8619,1.8618,1.8532,1.8531,1.8531,1.8485,1.8485,1.8484,1.8488,1.8489,1.849,1.8491,1.8438,1.8435,1.8433,0,0,0,0,0,0,0,0,0,0,0,0,0,1.8578,1.8617,1.8532,1.8528,1.8527,1.8485,1.8484,1.8484,1.8488,1.8489,1.849,1.8491,1.8439,1.8435,1.8432,1.839,0,0,1.8423,1.8421,0,0,0,0,0,0,0,0,1.858,1.8575,1.8529,1.8528,1.8527,1.8494,1.8496,1.8452,1.8488,1.8503,1.8491,1.8492,1.8455,1.845,1.8439,1.8388,1.8386,1.8422,1.842,1.8419,1.8418,0,0,0,0,0,0,0,1.8583,1.8577,1.8513,1.8528,1.8527,1.8526,1.8521,1.8488,1.8473,1.8501,1.8502,1.8496,1.8454,1.8442,1.8438,1.8385,1.8422,1.842,1.8418,1.8416,1.8297,1.8295,0,0,0,0,0,0,1.8588,1.8579,1.8515,1.8512,1.8557,1.8524,1.8518,1.8503,1.8473,1.847,1.8495,1.8497,1.8447,1.8441,1.8436,1.8384,1.8419,1.8416,1.8414,1.8298,1.8296,1.8295,0,0,0,0,0,0,1.859,1.8582,1.8516,1.8545,1.8537,1.8521,1.8504,1.8502,1.8489,1.8469,1.8466,1.8486,1.8447,1.844,1.8402,1.8382,1.8415,1.8412,1.8299,1.8297,1.8296,1.8281,0,0,0,0,0,0,1.8592,1.8583,1.8568,1.8545,1.8536,1.8485,1.8503,1.85,1.8485,1.8486,1.8459,1.8455,1.8448,1.8407,1.8399,1.8379,1.8409,1.8301,1.8298,1.8296,1.8283,1.8279,1.8275,0,0,0,0,0,1.8595,1.8564,1.8567,1.8559,1.8517,1.8484,1.8478,1.8472,1.8483,1.8467,1.8454,1.8456,1.8386,1.8403,1.8394,1.8372,1.8302,1.8299,1.8296,1.8285,1.828,1.8276,0,0,0,0,0,0,1.8583,1.8561,1.8564,1.8525,1.8507,1.8485,1.8464,1.8466,1.8443,1.8444,1.8436,1.8429,1.8391,1.8378,1.8397,1.833,1.8345,1.8341,1.834,1.8335,1.8331,1.8334,1.8407,0,0,0,0,0,1.8576,1.8553,1.8535,1.8502,1.8493,1.848,1.8466,1.8463,1.8442,1.8434,1.8418,1.8396,1.8369,1.8351,1.8325,1.8282,1.8275,1.8263,1.8259,1.8256,1.8251,1.8226,1.822,1.8285,1.8285,1.8286,0,0,1.8561,1.8546,1.8532,1.8499,1.8485,1.8459,1.8474,1.8446,1.8426,1.8429,1.8392,1.838,1.8355,1.8314,1.8295,1.8302,1.8232,1.8252,1.825,1.8247,1.8223,1.8217,1.8211,1.8284,1.8284,1.8284,0,0,1.852,1.8508,1.8479,1.8464,1.8443,1.8435,1.8428,1.8406,1.8398,1.8362,1.8363,1.8339,1.8293,1.8275,1.826,1.8213,1.8214,1.8205,1.8184,1.816,1.8154,1.815,1.8132,1.8126,1.8201,1.8201,1.8201,0,1.8504,1.8467,1.8463,1.8436,1.8421,1.8424,1.8394,1.838,1.835,1.8338,1.8347,1.829,1.8273,1.8228,1.8217,1.8205,1.8195,1.8207,1.8156,1.8151,1.8147,1.813,1.8123,1.82,1.82,1.82,1.82,0,1.8447,1.8422,1.8401,1.8374,1.8357,1.8328,1.8319,1.8301,1.83,1.829,1.8253,1.8233,1.8204,1.8193,1.819,1.8146,1.8151,1.8158,1.8173,1.814,1.8123,1.8117,1.8198,1.8199,1.8199,1.8199,0,0,1.8396,1.8369,1.8361,1.8349,1.8325,1.8305,1.8276,1.8249,1.8233,1.8213,1.8187,1.8149,1.8155,1.8138,1.8133,1.8112,1.8075,1.8121,1.8121,1.8113,1.8025,1.8019,1.8012,1.8077,1.8075,1.8074,1.8027,0,1.8353,1.8304,1.8299,1.8254,1.823,1.8233,1.8207,1.8189,1.818,1.8156,1.8145,1.8118,1.8129,1.8118,1.8098,1.8084,1.8057,1.8088,1.8051,1.8049,1.8056,1.8004,1.7997,1.7953,1.802,1.8019,1.8019,0,1.8295,1.8275,1.8228,1.8208,1.8197,1.8175,1.8149,1.8128,1.8106,1.8101,1.8083,1.8081,1.8049,1.8067,1.8022,1.8043,1.8027,1.8018,1.8016,1.8011,1.8031,1.7996,1.7939,1.7932,1.8009,1.801,1.801,0,1.8262,1.8222,1.8189,1.8178,1.8154,1.8138,1.8127,1.8108,1.8091,1.8069,1.8058,1.8031,1.8016,1.7995,1.7985,1.7999,1.794,1.7957,1.7933,1.7933,1.792,1.792,1.7858,1.7912,1.7912,1.7912,1.7912,0,1.8212,1.8183,1.8174,1.8153,1.812,1.8115,1.8082,1.8071,1.8054,1.803,1.803,1.8007,1.7997,1.7972,1.7964,1.7928,1.7921,1.7915,1.7913,1.7914,1.7915,1.7903,1.7905,1.791,1.7911,1.7911,1.7911,0,1.8169,1.8162,1.8125,1.8106,1.8101,1.8077,1.806,1.8039,1.803,1.8,1.7992,1.7978,1.7949,1.7938,1.7901,1.7896,1.7854,1.7855,1.7861,1.786,1.7837,1.7839,1.7764,1.7753,1.7815,1.7814,1.7814,0,1.8138,1.8116,1.8095,1.808,1.8069,1.8044,1.8028,1.8022,1.8005,1.798,1.7962,1.7933,1.791,1.7862,1.7847,1.7819,1.7819,1.7795,1.7815,1.7817,1.7817,1.7818,1.7816,1.7791,1.779,1.7789,1.7789,0,1.8083,1.808,1.8058,1.8035,1.8016,1.7997,1.7978,1.7966,1.7957,1.7937,1.7908,1.789,1.7854,1.7825,1.7797,1.7783,1.7784,1.7783,1.7776,1.7776,1.7781,1.7777,1.785,1.7784,1.7785,1.7785,1.7786,1.7786,1.8044,1.8024,1.8006,1.7981,1.7967,1.795,1.793,1.7919,1.7895,1.7867,1.7864,1.7833,1.7812,1.7774,1.7759,1.7733,1.774,1.7729,1.7726,1.7724,1.7722,1.7786,1.7728,1.7728,1.7728,1.7728,1.7728,0,1.7988,1.7977,1.7954,1.7929,1.7909,1.7914,1.7894,1.7876,1.7849,1.783,1.7808,1.7774,1.7746,1.773,1.7701,1.7683,1.7683,1.7676,1.7676,1.7673,1.7718,1.7727,1.7677,1.7677,1.7677,1.7677,1.7677,1.7677,1.7956,1.7923,1.7919,1.7878,1.7867,1.7838,1.7825,1.7809,1.7794,1.7757,1.7734,1.7724,1.7706,1.7676,1.765,1.7646,1.7634,1.7627,1.7623,1.7665,1.767,1.7675,1.7683,1.7625,1.7625,1.758,1.7579,1.7579]}]]